Content
SEND FEEDBACK

Daily
Averages
Monthly
Summary
United States of America

AGAT, GUAM


Home > North America > United States > Guam
Elevation: 364 feet     Latitude: 13 33N     Longitude: 144 50E

WEATHER
 
SELECT A DAY
Number of Records: 214,707;   Date Range: 1/1/95 - 11/19/14
 
SHARE

PRINT THIS DATA

[ ← Previous Day ]
WEATHER ALMANAC - JANUARY 28, 2013
[ Next Day → ]
[ °C ]   °F
Weather ElementAverageHighLow
Temperature78.7 °F84 °F (12:54 pm)73.9 °F (4:54 am)
Dewpoint66.9 °F70 °F (10:54 am)64.4 °F (7:35 am)
Humidity67.4 %79 % (4:54 am)55 % (3:54 pm)
Barometer29.92 in29.97 in (7:35 am)29.86 in (2:54 pm)
Wind Speed10.4 mph17.3 mph (9:54 am)
Wind Gust25.3 mph (12:54 pm)
Weather ElementAverage
Visibility10 mi
Wind DirectionENE (65 °)

Weather ElementTotal
Precipitation---
Cooling Degree Days14 (Base 65)
Growing Degree Days29 (Base 50)
Averaged from 24 records on January 28, 2013
WEATHER CONDITIONS BREAKOUT
WIND DIRECTION BREAKOUT
WEATHER BY HOUR - JANUARY 28, 2013
[ °C ]   °F
Local TimeTemperatureDewpointHumidityBarometerVisibilityWind DirectionWind SpeedGust SpeedPrecipitationEventsConditions
1:54 AM75.9 °F66.0 °F71 %29.92 in10.0 miENE (60°)6.9 mphClear
2:54 AM75.0 °F66.0 °F73 %29.91 in10.0 miNE (50°)6.9 mphClear
3:54 AM75.0 °F66.9 °F76 %29.91 in10.0 miNE (50°)6.9 mphClear
4:54 AM73.9 °F66.9 °F79 %29.92 in10.0 miENE (60°)5.8 mphClear
5:54 AM73.9 °F66.0 °F76 %29.94 in10.0 miENE (60°)6.9 mphClear
6:54 AM77.0 °F66.9 °F71 %29.94 in10.0 miENE (70°)12.7 mphPartly Cloudy
7:35 AM77.0 °F64.4 °F65 %29.97 in10.0 miENE (70°)9.2 mphPartly Cloudy
7:54 AM78.1 °F64.9 °F64 %29.95 in10.0 miENE (70°)11.5 mphClear
8:54 AM80.1 °F66.9 °F64 %29.96 in10.0 miENE (70°)13.8 mphClear
9:54 AM82.0 °F68.0 °F62 %29.96 in10.0 miENE (60°)17.3 mph24.2 mphPartly Cloudy
10:54 AM82.0 °F70.0 °F67 %29.94 in10.0 miEast (90°)13.8 mph23.0 mphMostly Cloudy
11:54 AM82.0 °F70.0 °F67 %29.92 in10.0 miEast (80°)16.1 mphMostly Cloudy
12:54 PM84.0 °F69.1 °F61 %29.90 in10.0 miEast (90°)15.0 mph25.3 mphMostly Cloudy
1:54 PM84.0 °F69.1 °F61 %29.87 in10.0 miENE (70°)17.3 mph25.3 mphPartly Cloudy
2:54 PM82.9 °F66.9 °F58 %29.86 in10.0 miEast (80°)13.8 mph21.9 mphMostly Cloudy
3:54 PM84.0 °F66.0 °F55 %29.86 in10.0 miENE (60°)11.5 mph20.7 mphPartly Cloudy
4:54 PM82.0 °F66.0 °F58 %29.89 in10.0 miEast (80°)13.8 mph20.7 mphMostly Cloudy
5:54 PM80.1 °F66.9 °F64 %29.90 in10.0 miENE (60°)8.1 mphPartly Cloudy
6:54 PM78.1 °F66.0 °F66 %29.91 in10.0 miNE (50°)6.9 mphPartly Cloudy
7:54 PM77.0 °F66.0 °F69 %29.92 in10.0 miENE (60°)8.1 mphClear
8:54 PM78.1 °F64.9 °F64 %29.94 in10.0 miENE (60°)8.1 mphPartly Cloudy
9:54 PM73.9 °F66.0 °F76 %29.95 in10.0 miNE (40°)5.8 mphPartly Cloudy
10:54 PM75.0 °F66.9 °F76 %29.95 in10.0 miNE (50°)6.9 mphPartly Cloudy
11:54 PM77.0 °F68.0 °F74 %29.94 in10.0 miENE (70°)5.8 mphMostly Cloudy
Hourly data recorded from PGUM, located miles away from Agat, Guam







STORIES FROM OUR PARTNERS